Miscellaneous Local Product
Issued by NWS North Platte, NE

Home | Current Version | Previous Version | Text Only | Print | Product List | Glossary On
Versions: 1 2 3 4 5 6 7 8 9 10 11 12 13 14 15 16 17 18 19 20 21 22 23 24 25 26 27 28 29 30 31 32 33 34 35 36 37 38 39 40 41 42 43 44 45 46 47 48 49 50
305
AXUS43 KLBF 231710
MISLBF


WESTERN AND NORTH CENTRAL NEBRASKA HOURLY WEATHER ROUNDUP
NATIONAL WEATHER SERVICE NORTH PLATTE NE
1100 AM CST THU FEB 23 2017

NOTE: "FAIR" INDICATES FEW OR NO CLOUDS BELOW 12,000 FEET WITH NO
SIGNIFICANT WEATHER AND/OR OBSTRUCTIONS TO VISIBILITY.

NOTE: STATIONS NOT REPORTING VARIABLES SUCH AS SKY/WEATHER OR
PRESSURE ARE PROVIDED BY RAWS AND APRS NETWORKS AND ARE NOT UNDER
NATIONAL WEATHER SERVICE QUALITY CONTROL.

...OBSERVATIONS IN AND NEAR THE EASTERN PANHANDLE OF NEBRASKA...

CITY           SKY/WX    TMP DP  RH WIND       PRES   REMARKS
PINE RIDGE     SNOW      24  22  91 NE20G28   29.81S VSB 1/4 WCI  10
CHADRON        FOG       25  22  88 NE18      29.79S VSB 1/4 WCI  11
ALLIANCE       HVY SNOW  24  21  88 NE23      29.69F VSB 1/4 WCI   9
SIDNEY         FRZ RAIN  27  24  89 NE22      29.63F FOG     WCI  13
CRESCENT LAKE    N/A     24  23  95 NE15G24     N/A  WCI  11
$$

...OBSERVATIONS IN NORTHERN NEBRASKA AND FAR SOUTHERN SOUTH DAKOTA...

CITY           SKY/WX    TMP DP  RH WIND       PRES   REMARKS
WINNER         LGT SNOW  29  25  85 NE18      29.89R VSB 3/4 WCI  16
VALENTINE      SNOW      26  22  84 NE16      29.82F VSB 1/4 WCI  14
THEDFORD       LGT SNOW  28  25  89 NE15G24   29.74F WCI  16
AINSWORTH      SNOW      26  26  97 NE17      29.79F VSB 1/2 WCI  14
O`NEILL        LGT SNOW  30  29  96 N15       29.81S VSB 1   WCI  19
ORD            CLOUDY    31  27  85 NE17G24   29.72F WCI  19
BROKEN BOW     CLOUDY    30  28  92 NE17G28   29.69F WCI  18
VALENTINE NWR    N/A     25  23  93 NE13G20     N/A  WCI  14
BUTTE            N/A     27  26  94 NE17G24     N/A  WCI  14
HALSEY           N/A     26  25  94 NE8G15      N/A  WCI  18
CHAMBERS         N/A     31  28  86 N6          N/A  WCI  25
EWING            N/A     31  30  94 NE8         N/A  WCI  24
$$

...OBSERVATIONS IN SOUTHWEST NEBRASKA AND FAR NORTHEAST COLORADO...

CITY           SKY/WX    TMP DP  RH WIND       PRES   REMARKS
HOLYOKE        LGT SNOW  34  32  93 NE17      29.61F WCI  23
IMPERIAL       CLOUDY    30  28  92 NE23      29.62F FOG     WCI  17
OGALLALA       CLOUDY    31  26  83 NE22      29.67S WCI  18
NORTH PLATTE   CLOUDY    30  25  81 NE20      29.68F WCI  17
MCCOOK         CLOUDY    32  31  96 NE20G28   29.62F FOG     WCI  20
LEXINGTON      CLOUDY    32  31  96 NE17G28   29.67F FOG     WCI  21
STAPLETON        N/A     26  24  90 E5G12       N/A  WCI  20
GOTHENBURG       N/A     29  27  92 NE7         N/A  WCI  22
CALLAWAY         N/A     28  27  96 NE12        N/A  WCI  18
$$

...OBSERVATIONS IN CENTRAL LINCOLN COUNTY AREA...

CITY           SKY/WX    TMP DP  RH WIND       PRES   REMARKS
N.P. AIRPORT   CLOUDY    30  25  81 NE20      29.68F WCI  17
N.P. DOWNTOWN    N/A     28  25  88 NE16G24     N/A  WCI  16
N.P. SOUTHEAST   N/A     28  25  87 NE12G21     N/A  WCI  18
N.P. HILLCREST   N/A     28  26  90 E21G28      N/A  WCI  15
$$

...SOME OBSERVATIONS FROM AROUND THE REGION...

CITY           SKY/WX    TMP DP  RH WIND       PRES   REMARKS
LARAMIE        FLURRIES  22  15  75 E10       29.49S WCI  11
CHEYENNE       SNOW      24  22  91 NE13G21   29.57R VSB 1/2 WCI  12
DENVER         LGT SNOW  29  25  85 E8        29.53R VSB 1   WCI  21
AKRON          FRZ RAIN  29  27  92 NE22G29   29.54F FOG     WCI  15
SCOTTSBLUFF    HVY SNOW  26  22  84 NE18      29.70R VSB 1/4 WCI  13
RAPID CITY     LGT SNOW  25  22  88 NE9       29.89R VSB 3/4 WCI  15
BISMARCK       CLOUDY    31  24  75 E8        30.03S WCI  23
PIERRE         PTSUNNY   32  23  69 NE15      29.93R WCI  22
SIOUX FALLS    CLOUDY    32  26  78 NE18      29.88S WCI  20
OMAHA          CLOUDY    40  33  76 NE16G22   29.72F WCI  31
GRAND ISLAND   CLOUDY    33  32  96 NE23      29.69F FOG     WCI  21
KANSAS CITY    CLOUDY    50  39  66 E13       29.66R
WICHITA        CLOUDY    63  47  55 E14       29.48F
OKLAHOMA CITY  MOSUNNY   72  43  35 S14       29.52F
DALLAS         SUNNY     78  47  33 S15       29.61F
AMARILLO       SUNNY     72  33  24 SW31G39   29.57F
DODGE CITY     SUNNY     58  39  49 SE10      29.49F
HAYS           SUNNY     51  37  58 NE17G25   29.54F
GOODLAND       CLOUDY    33  33 100 E21       29.53F WCI  21
$$




USA.gov is the U.S. government's official web portal to all federal, state and local government web resources and services.